| time (UTC) | temp C | wind direction | speed KPH | gust KPH | rain 1hr cm | rain 24hr cm | rain mn cm | humidity % | barometer mb |
| 20260510100522 | 10 | 217 | 0.0 | 1.6 | 0.00 | 0.58 | 0.00 | 99 | 995.0 |
| 20260510100031 | 10 | 217 | 0.0 | 1.6 | 0.00 | 0.58 | 0.00 | 99 | 995.0 |
| 20260510095520 | 10 | 229 | 0.0 | 0.0 | 0.00 | 0.58 | 0.00 | 99 | 995.0 |
| 20260510095030 | 10 | 229 | 0.0 | 1.6 | 0.00 | 0.58 | 0.00 | 99 | 995.0 |
| 20260510094520 | 10 | 229 | 0.0 | 3.2 | 0.00 | 0.58 | 0.00 | 99 | 995.0 |
| 20260510094046 | 10 | 229 | 0.0 | 3.2 | 0.00 | 0.58 | 0.00 | 99 | 994.9 |
| 20260510093529 | 10 | 117 | 0.0 | 0.0 | 0.00 | 0.58 | 0.00 | 99 | 994.5 |
| 20260510093035 | 10 | 117 | 0.0 | 0.0 | 0.00 | 0.58 | 0.00 | 99 | 994.5 |
| 20260510092545 | 10 | 117 | 0.0 | 1.6 | 0.00 | 0.58 | 0.00 | 99 | 994.3 |
| 20260510092026 | 10 | 117 | 0.0 | 4.8 | 0.00 | 0.58 | 0.00 | 99 | 994.3 |
| 20260510091536 | 10 | 230 | 1.6 | 4.8 | 0.00 | 0.58 | 0.00 | 99 | 994.4 |
| 20260510091046 | 10 | 233 | 0.0 | 3.2 | 0.00 | 0.58 | 0.00 | 99 | 994.5 |
| 20260510090528 | 10 | 82 | 0.0 | 1.6 | 0.00 | 0.58 | 0.00 | 99 | 994.3 |
| 20260510090038 | 10 | 303 | 0.0 | 1.6 | 0.00 | 0.58 | 0.00 | 99 | 994.3 |
| 20260510085539 | 10 | 303 | 0.0 | 1.6 | 0.00 | 0.58 | 0.00 | 99 | 994.3 |
| 20260510085029 | 10 | 303 | 0.0 | 1.6 | 0.00 | 0.58 | 0.00 | 99 | 994.3 |
| 20260510084540 | 10 | 288 | 0.0 | 1.6 | 0.00 | 0.58 | 0.00 | 99 | 994.3 |
| 20260510084020 | 10 | 340 | 0.0 | 1.6 | 0.00 | 0.58 | 0.00 | 99 | 994.3 |
| 20260510083532 | 10 | 226 | 0.0 | 1.6 | 0.00 | 0.58 | 0.00 | 99 | 994.2 |
| 20260510083041 | 10 | 226 | 0.0 | 0.0 | 0.00 | 0.58 | 0.00 | 99 | 994.2 |
| 20260510082523 | 10 | 226 | 0.0 | 1.6 | 0.00 | 0.58 | 0.00 | 99 | 994.5 |
| 20260510082033 | 10 | 226 | 0.0 | 1.6 | 0.00 | 0.58 | 0.00 | 99 | 994.5 |
| 20260510081534 | 10 | 226 | 0.0 | 1.6 | 0.00 | 0.58 | 0.00 | 99 | 994.5 |
| 20260510081024 | 10 | 226 | 0.0 | 1.6 | 0.00 | 0.58 | 0.00 | 99 | 994.2 |
| 20260510080532 | 10 | 205 | 0.0 | 1.6 | 0.00 | 0.58 | 0.00 | 99 | 994.2 |
| 20260510080027 | 10 | 247 | 0.0 | 1.6 | 0.00 | 0.58 | 0.00 | 99 | 994.5 |
| 20260510075534 | 10 | 239 | 0.0 | 1.6 | 0.00 | 0.58 | 0.00 | 99 | 994.2 |
| 20260510075044 | 10 | 134 | 0.0 | 3.2 | 0.00 | 0.58 | 0.00 | 99 | 993.9 |
| 20260510074525 | 10 | 266 | 0.0 | 1.6 | 0.00 | 0.58 | 0.00 | 99 | 993.9 |
| 20260510074035 | 10 | 266 | 1.6 | 1.6 | 0.00 | 0.58 | 0.00 | 99 | 993.8 |
| 20260510073547 | 10 | 127 | 0.0 | 1.6 | 0.00 | 0.58 | 0.00 | 99 | 993.5 |
| 20260510073026 | 10 | 132 | 0.0 | 3.2 | 0.00 | 0.58 | 0.00 | 99 | 994.3 |
| 20260510072537 | 10 | 135 | 1.6 | 3.2 | 0.00 | 0.58 | 0.00 | 99 | 994.4 |
| 20260510072048 | 10 | 122 | 0.0 | 3.2 | 0.00 | 0.58 | 0.00 | 99 | 994.4 |
| 20260510071529 | 10 | 266 | 0.0 | 0.0 | 0.00 | 0.58 | 0.00 | 99 | 994.7 |
| 20260510071040 | 10 | 266 | 0.0 | 0.0 | 0.00 | 0.58 | 0.00 | 98 | 994.8 |
| 20260510070523 | 10 | 265 | 0.0 | 1.6 | 0.00 | 0.58 | 0.00 | 98 | 994.7 |
| 20260510070032 | 10 | 243 | 0.0 | 0.0 | 0.00 | 0.58 | 0.00 | 99 | 994.6 |
| 20260510065540 | 10 | 243 | 0.0 | 0.0 | 0.00 | 0.58 | 0.00 | 99 | 994.8 |
| 20260510065021 | 10 | 243 | 0.0 | 1.6 | 0.00 | 0.58 | 0.00 | 99 | 994.9 |
| 20260510064530 | 10 | 243 | 0.0 | 1.6 | 0.00 | 0.58 | 0.00 | 99 | 994.9 |
| 20260510064040 | 10 | 243 | 0.0 | 3.2 | 0.00 | 0.58 | 0.00 | 99 | 995.0 |
| 20260510063537 | 10 | 237 | 0.0 | 4.8 | 0.00 | 0.58 | 0.00 | 99 | 995.0 |
| 20260510063023 | 10 | 171 | 0.0 | 3.2 | 0.00 | 0.58 | 0.00 | 99 | 995.1 |
| 20260510062534 | 10 | 211 | 0.0 | 3.2 | 0.00 | 0.58 | 0.00 | 99 | 995.3 |
| 20260510062021 | 10 | 214 | 0.0 | 3.2 | 0.00 | 0.58 | 0.00 | 99 | 995.0 |
| 20260510061522 | 10 | 236 | 0.0 | 3.2 | 0.00 | 0.58 | 0.00 | 99 | 994.9 |
| 20260510061033 | 10 | 250 | 0.0 | 1.6 | 0.00 | 0.58 | 0.00 | 99 | 994.7 |
| 20260510060525 | 10 | 250 | 0.0 | 3.2 | 0.00 | 0.58 | 0.00 | 99 | 994.8 |
| 20260510060032 | 10 | 250 | 0.0 | 3.2 | 0.00 | 0.58 | 0.00 | 99 | 994.9 |
| 20260510055542 | 10 | 265 | 0.0 | 1.6 | 0.00 | 0.58 | 0.00 | 99 | 994.9 |
| 20260510055023 | 10 | 265 | 0.0 | 1.6 | 0.00 | 0.58 | 0.00 | 99 | 994.8 |
| 20260510054531 | 10 | 265 | 0.0 | 1.6 | 0.00 | 0.58 | 0.00 | 99 | 994.7 |
| 20260510054033 | 10 | 108 | 0.0 | 1.6 | 0.00 | 0.58 | 0.00 | 99 | 994.6 |
| 20260510053524 | 10 | 108 | 0.0 | 0.0 | 0.00 | 0.58 | 0.00 | 98 | 994.6 |
| 20260510053030 | 10 | 108 | 0.0 | 0.0 | 0.00 | 0.58 | 0.00 | 98 | 994.5 |
| 20260510052520 | 10 | 108 | 0.0 | 0.0 | 0.00 | 0.58 | 0.00 | 98 | 994.4 |
| 20260510052020 | 10 | 108 | 0.0 | 0.0 | 0.00 | 0.58 | 0.00 | 98 | 994.4 |
| 20260510051530 | 10 | 108 | 0.0 | 0.0 | 0.00 | 0.58 | 0.00 | 98 | 994.5 |
| 20260510051041 | 10 | 108 | 0.0 | 0.0 | 0.00 | 0.58 | 0.00 | 98 | 994.5 |
| 20260510050524 | 10 | 108 | 0.0 | 0.0 | 0.00 | 0.58 | 0.00 | 98 | 994.4 |
| 20260510050034 | 10 | 108 | 0.0 | 1.6 | 0.00 | 0.58 | 0.00 | 98 | 994.3 |
| 20260510045545 | 10 | 108 | 0.0 | 1.6 | 0.00 | 0.58 | 0.00 | 98 | 994.5 |
| 20260510045022 | 10 | 108 | 0.0 | 1.6 | 0.00 | 0.58 | 0.00 | 98 | 994.7 |
| 20260510044533 | 10 | 108 | 0.0 | 0.0 | 0.00 | 0.58 | 0.00 | 98 | 994.5 |
| 20260510044043 | 10 | 108 | 0.0 | 0.0 | 0.00 | 0.58 | 0.00 | 98 | 994.5 |
| 20260510043526 | 10 | 108 | 0.0 | 1.6 | 0.00 | 0.58 | 0.00 | 98 | 994.5 |
| 20260510043036 | 10 | 108 | 0.0 | 1.6 | 0.00 | 0.58 | 0.00 | 98 | 994.6 |
| 20260510042546 | 10 | 108 | 0.0 | 0.0 | 0.00 | 0.58 | 0.00 | 98 | 994.7 |
| 20260510042026 | 10 | 108 | 0.0 | 1.6 | 0.00 | 0.58 | 0.00 | 98 | 994.7 |
| 20260510041531 | 10 | 108 | 0.0 | 1.6 | 0.00 | 0.58 | 0.00 | 98 | 994.5 |
| 20260510041033 | 10 | 108 | 0.0 | 1.6 | 0.00 | 0.58 | 0.00 | 98 | 994.4 |
| 20260510040525 | 10 | 108 | 0.0 | 1.6 | 0.00 | 0.58 | 0.00 | 98 | 994.3 |
| 20260510040032 | 10 | 108 | 0.0 | 1.6 | 0.00 | 0.58 | 0.58 | 98 | 994.4 |
| 20260510035532 | 10 | 108 | 0.0 | 1.6 | 0.00 | 0.58 | 0.58 | 98 | 994.5 |
| 20260510035021 | 10 | 108 | 0.0 | 1.6 | 0.00 | 0.58 | 0.58 | 98 | 994.5 |
| 20260510034532 | 9 | 276 | 0.0 | 0.0 | 0.00 | 0.58 | 0.58 | 98 | 994.4 |
| 20260510034033 | 9 | 276 | 0.0 | 0.0 | 0.00 | 0.58 | 0.58 | 98 | 994.5 |
| 20260510033525 | 9 | 276 | 0.0 | 0.0 | 0.00 | 0.58 | 0.58 | 98 | 994.4 |
| 20260510033023 | 9 | 276 | 0.0 | 0.0 | 0.00 | 0.58 | 0.58 | 98 | 994.4 |
| 20260510032533 | 9 | 276 | 0.0 | 0.0 | 0.00 | 0.58 | 0.58 | 98 | 994.4 |
| 20260510032019 | 9 | 276 | 0.0 | 0.0 | 0.00 | 0.58 | 0.58 | 98 | 994.4 |
| 20260510031520 | 9 | 276 | 0.0 | 0.0 | 0.00 | 0.58 | 0.58 | 98 | 994.5 |
| 20260510031030 | 9 | 276 | 0.0 | 0.0 | 0.00 | 0.58 | 0.58 | 98 | 994.7 |
| 20260510030542 | 9 | 276 | 0.0 | 0.0 | 0.00 | 0.58 | 0.58 | 98 | 994.7 |
| 20260510030021 | 9 | 276 | 0.0 | 0.0 | 0.00 | 0.58 | 0.58 | 98 | 994.7 |
| 20260510025531 | 9 | 276 | 0.0 | 0.0 | 0.00 | 0.58 | 0.58 | 98 | 994.5 |
| 20260510025041 | 9 | 276 | 0.0 | 0.0 | 0.00 | 0.58 | 0.58 | 98 | 994.6 |
| 20260510024535 | 9 | 276 | 0.0 | 0.0 | 0.00 | 0.58 | 0.58 | 98 | 994.7 |
| 20260510024025 | 9 | 276 | 0.0 | 0.0 | 0.00 | 0.58 | 0.58 | 98 | 994.7 |
| 20260510023537 | 9 | 276 | 0.0 | 0.0 | 0.00 | 0.58 | 0.58 | 98 | 994.6 |
| 20260510023036 | 9 | 276 | 0.0 | 0.0 | 0.00 | 0.58 | 0.58 | 98 | 994.6 |
| 20260510022526 | 9 | 276 | 0.0 | 0.0 | 0.00 | 0.58 | 0.58 | 98 | 994.7 |
| 20260510022028 | 9 | 276 | 0.0 | 0.0 | 0.00 | 0.58 | 0.58 | 98 | 994.5 |
| 20260510021536 | 9 | 276 | 0.0 | 0.0 | 0.00 | 0.58 | 0.58 | 98 | 994.6 |
| 20260510021027 | 9 | 276 | 0.0 | 0.0 | 0.00 | 0.58 | 0.58 | 98 | 994.5 |
| 20260510020527 | 9 | 276 | 0.0 | 0.0 | 0.00 | 0.58 | 0.58 | 98 | 994.6 |
| 20260510020039 | 9 | 276 | 0.0 | 0.0 | 0.00 | 0.58 | 0.58 | 98 | 994.8 |
| 20260510015529 | 9 | 276 | 0.0 | 0.0 | 0.00 | 0.58 | 0.58 | 98 | 994.8 |
| 20260510015029 | 9 | 276 | 0.0 | 0.0 | 0.00 | 0.58 | 0.58 | 98 | 994.6 |
| 20260510014540 | 9 | 276 | 0.0 | 0.0 | 0.00 | 0.58 | 0.58 | 98 | 994.6 |
| 20260510014020 | 9 | 276 | 0.0 | 0.0 | 0.00 | 0.58 | 0.58 | 98 | 994.5 |
| 20260510013532 | 9 | 276 | 0.0 | 0.0 | 0.00 | 0.58 | 0.58 | 98 | 994.6 |
| 20260510013020 | 9 | 276 | 0.0 | 0.0 | 0.00 | 0.58 | 0.58 | 98 | 994.6 |
| 20260510012521 | 9 | 276 | 0.0 | 0.0 | 0.00 | 0.58 | 0.58 | 98 | 994.7 |
| 20260510012022 | 9 | 276 | 0.0 | 0.0 | 0.00 | 0.58 | 0.58 | 98 | 994.6 |
| 20260510011532 | 9 | 276 | 0.0 | 0.0 | 0.00 | 0.58 | 0.58 | 98 | 994.6 |
| 20260510011038 | 9 | 276 | 0.0 | 0.0 | 0.00 | 0.58 | 0.58 | 98 | 994.5 |
| 20260510010539 | 9 | 276 | 0.0 | 0.0 | 0.00 | 0.58 | 0.58 | 98 | 994.7 |
| 20260510010027 | 9 | 276 | 0.0 | 0.0 | 0.00 | 0.58 | 0.58 | 98 | 994.7 |
| 20260510005526 | 9 | 276 | 0.0 | 0.0 | 0.00 | 0.58 | 0.58 | 98 | 994.6 |
| 20260510005038 | 9 | 276 | 0.0 | 0.0 | 0.00 | 0.58 | 0.58 | 98 | 994.7 |
| 20260510004525 | 9 | 276 | 0.0 | 0.0 | 0.00 | 0.58 | 0.58 | 98 | 994.7 |
| 20260510004025 | 9 | 276 | 0.0 | 0.0 | 0.00 | 0.58 | 0.58 | 98 | 994.7 |
| 20260510003537 | 9 | 276 | 0.0 | 0.0 | 0.00 | 0.58 | 0.58 | 98 | 994.7 |
| 20260510003025 | 9 | 276 | 0.0 | 0.0 | 0.00 | 0.58 | 0.58 | 98 | 994.6 |
| 20260510002525 | 9 | 276 | 0.0 | 0.0 | 0.00 | 0.58 | 0.58 | 98 | 994.5 |
| 20260510002033 | 9 | 276 | 0.0 | 0.0 | 0.00 | 0.58 | 0.58 | 97 | 994.4 |
| 20260510001543 | 10 | 276 | 0.0 | 0.0 | 0.00 | 0.58 | 0.58 | 97 | 994.3 |
| 20260510001023 | 10 | 276 | 0.0 | 0.0 | 0.00 | 0.58 | 0.58 | 97 | 994.2 |
| 20260510000535 | 10 | 276 | 0.0 | 0.0 | 0.00 | 0.58 | 0.58 | 97 | 994.2 |
| 20260510000044 | 10 | 276 | 0.0 | 0.0 | 0.00 | 0.58 | 0.58 | 97 | 994.1 |
| 20260509235525 | 10 | 276 | 0.0 | 0.0 | 0.00 | 0.58 | 0.58 | 97 | 994.1 |
| 20260509235035 | 10 | 276 | 0.0 | 0.0 | 0.00 | 0.58 | 0.58 | 97 | 994.2 |
| 20260509234545 | 10 | 276 | 0.0 | 0.0 | 0.03 | 0.58 | 0.58 | 97 | 994.2 |
| 20260509234026 | 10 | 276 | 0.0 | 0.0 | 0.03 | 0.58 | 0.58 | 97 | 994.2 |
| 20260509233533 | 10 | 276 | 0.0 | 0.0 | 0.03 | 0.58 | 0.58 | 97 | 994.1 |
| 20260509233032 | 10 | 276 | 0.0 | 0.0 | 0.03 | 0.58 | 0.58 | 97 | 994.1 |
| 20260509232522 | 10 | 276 | 0.0 | 0.0 | 0.03 | 0.58 | 0.58 | 97 | 994.0 |
| 20260509232032 | 10 | 276 | 0.0 | 0.0 | 0.03 | 0.58 | 0.58 | 97 | 993.9 |
| 20260509231534 | 10 | 276 | 0.0 | 0.0 | 0.03 | 0.58 | 0.58 | 97 | 993.9 |
| 20260509231024 | 10 | 276 | 0.0 | 0.0 | 0.03 | 0.58 | 0.58 | 97 | 993.8 |
| 20260509230536 | 10 | 276 | 0.0 | 0.0 | 0.03 | 0.58 | 0.58 | 97 | 993.8 |
| 20260509230035 | 10 | 276 | 0.0 | 0.0 | 0.03 | 0.58 | 0.58 | 97 | 993.8 |
| 20260509225524 | 10 | 276 | 0.0 | 0.0 | 0.03 | 0.58 | 0.58 | 97 | 993.8 |
| 20260509225025 | 10 | 276 | 0.0 | 0.0 | 0.03 | 0.58 | 0.58 | 97 | 993.9 |
| 20260509224536 | 10 | 276 | 0.0 | 0.0 | 0.00 | 0.56 | 0.56 | 97 | 993.9 |
| 20260509224025 | 10 | 276 | 0.0 | 0.0 | 0.00 | 0.56 | 0.56 | 97 | 993.9 |
| 20260509223528 | 10 | 276 | 0.0 | 0.0 | 0.03 | 0.56 | 0.56 | 97 | 993.9 |
| 20260509223036 | 10 | 276 | 0.0 | 0.0 | 0.03 | 0.56 | 0.56 | 97 | 993.8 |
| 20260509222546 | 10 | 276 | 0.0 | 0.0 | 0.03 | 0.56 | 0.56 | 97 | 993.8 |
| 20260509222027 | 10 | 276 | 0.0 | 0.0 | 0.03 | 0.56 | 0.56 | 97 | 993.9 |
| 20260509221537 | 10 | 276 | 0.0 | 0.0 | 0.03 | 0.56 | 0.56 | 97 | 993.9 |
| 20260509221046 | 10 | 276 | 0.0 | 0.0 | 0.03 | 0.56 | 0.56 | 97 | 993.9 |
| 20260509220530 | 10 | 276 | 0.0 | 0.0 | 0.03 | 0.56 | 0.56 | 97 | 994.0 |
| 20260509220031 | 10 | 273 | 0.0 | 0.0 | 0.03 | 0.56 | 0.56 | 97 | 994.1 |
| 20260509215541 | 10 | 272 | 0.0 | 0.0 | 0.03 | 0.56 | 0.56 | 97 | 994.2 |
| 20260509214532 | 10 | 273 | 0.0 | 0.0 | 0.03 | 0.56 | 0.56 | 97 | 994.3 |
| 20260509214034 | 10 | 273 | 0.0 | 0.0 | 0.03 | 0.56 | 0.56 | 97 | 994.4 |
| 20260509213526 | 10 | 273 | 0.0 | 0.0 | 0.00 | 0.53 | 0.53 | 97 | 994.5 |
| 20260509213036 | 10 | 273 | 0.0 | 0.0 | 0.00 | 0.53 | 0.53 | 97 | 994.6 |
| 20260509212536 | 10 | 273 | 0.0 | 0.0 | 0.00 | 0.53 | 0.53 | 97 | 994.6 |
| 20260509212026 | 10 | 273 | 0.0 | 0.0 | 0.00 | 0.53 | 0.53 | 97 | 994.6 |
| 20260509211526 | 10 | 273 | 0.0 | 0.0 | 0.00 | 0.53 | 0.53 | 97 | 994.6 |
| 20260509211037 | 9 | 273 | 0.0 | 0.0 | 0.00 | 0.53 | 0.53 | 97 | 994.6 |
| 20260509210524 | 9 | 273 | 0.0 | 0.0 | 0.00 | 0.53 | 0.53 | 97 | 994.7 |
| 20260509210023 | 9 | 273 | 0.0 | 0.0 | 0.00 | 0.53 | 0.53 | 97 | 994.7 |
| 20260509205533 | 9 | 273 | 0.0 | 0.0 | 0.00 | 0.53 | 0.53 | 97 | 994.8 |
| 20260509205023 | 9 | 273 | 0.0 | 0.0 | 0.00 | 0.53 | 0.53 | 97 | 994.8 |
| 20260509204524 | 9 | 273 | 0.0 | 0.0 | 0.00 | 0.53 | 0.53 | 97 | 994.9 |
| 20260509204035 | 9 | 273 | 0.0 | 0.0 | 0.00 | 0.53 | 0.53 | 97 | 994.9 |
| 20260509203527 | 9 | 273 | 0.0 | 0.0 | 0.00 | 0.53 | 0.53 | 97 | 995.0 |
| 20260509203025 | 9 | 273 | 0.0 | 0.0 | 0.00 | 0.53 | 0.53 | 97 | 995.1 |
| 20260509202531 | 9 | 273 | 0.0 | 0.0 | 0.00 | 0.53 | 0.53 | 96 | 995.2 |
| 20260509202042 | 9 | 273 | 0.0 | 0.0 | 0.00 | 0.53 | 0.53 | 96 | 995.2 |
| 20260509201522 | 9 | 273 | 0.0 | 0.0 | 0.00 | 0.53 | 0.53 | 96 | 995.3 |
| 20260509201031 | 9 | 273 | 0.0 | 0.0 | 0.00 | 0.53 | 0.53 | 96 | 995.3 |
| 20260509200543 | 9 | 273 | 0.0 | 0.0 | 0.00 | 0.53 | 0.53 | 96 | 995.4 |
| 20260509200022 | 9 | 273 | 0.0 | 0.0 | 0.00 | 0.53 | 0.53 | 96 | 995.3 |
| 20260509195533 | 9 | 273 | 0.0 | 0.0 | 0.00 | 0.53 | 0.53 | 96 | 995.5 |
| 20260509195044 | 9 | 273 | 0.0 | 0.0 | 0.00 | 0.53 | 0.53 | 96 | 995.4 |
| 20260509194523 | 9 | 273 | 0.0 | 0.0 | 0.00 | 0.53 | 0.53 | 96 | 995.4 |
| 20260509194033 | 9 | 273 | 0.0 | 0.0 | 0.00 | 0.53 | 0.53 | 96 | 995.5 |
| 20260509193536 | 9 | 273 | 0.0 | 0.0 | 0.00 | 0.53 | 0.53 | 96 | 995.5 |
| 20260509193024 | 9 | 273 | 0.0 | 0.0 | 0.00 | 0.53 | 0.53 | 96 | 995.5 |
| 20260509192534 | 9 | 273 | 0.0 | 0.0 | 0.00 | 0.53 | 0.53 | 96 | 995.5 |
| 20260509192034 | 9 | 273 | 0.0 | 0.0 | 0.00 | 0.53 | 0.53 | 96 | 995.6 |
| 20260509191522 | 9 | 273 | 0.0 | 0.0 | 0.00 | 0.53 | 0.53 | 96 | 995.6 |
| 20260509191022 | 9 | 273 | 0.0 | 0.0 | 0.00 | 0.53 | 0.53 | 96 | 995.6 |
| 20260509190533 | 9 | 273 | 0.0 | 0.0 | 0.00 | 0.53 | 0.53 | 96 | 995.6 |
| 20260509190039 | 9 | 273 | 0.0 | 0.0 | 0.00 | 0.53 | 0.53 | 96 | 995.7 |
| 20260509185542 | 9 | 273 | 0.0 | 0.0 | 0.00 | 0.53 | 0.53 | 96 | 995.7 |
| 20260509185049 | 9 | 273 | 0.0 | 0.0 | 0.00 | 0.53 | 0.53 | 95 | 995.8 |
| 20260509184557 | 9 | 273 | 0.0 | 0.0 | 0.00 | 0.53 | 0.53 | 95 | 995.8 |
| 20260509184044 | 9 | 273 | 0.0 | 0.0 | 0.00 | 0.53 | 0.53 | 96 | 995.8 |
| 20260509183554 | 9 | 273 | 0.0 | 0.0 | 0.00 | 0.53 | 0.53 | 96 | 995.8 |
| 20260509183059 | 9 | 273 | 0.0 | 0.0 | 0.00 | 0.53 | 0.53 | 96 | 995.9 |
| 20260509182547 | 9 | 273 | 0.0 | 0.0 | 0.00 | 0.53 | 0.53 | 96 | 995.9 |
| 20260509182053 | 9 | 273 | 0.0 | 0.0 | 0.00 | 0.53 | 0.53 | 96 | 995.9 |
| 20260509181600 | 8 | 273 | 0.0 | 0.0 | 0.00 | 0.53 | 0.53 | 96 | 995.9 |
| 20260509181048 | 8 | 273 | 0.0 | 0.0 | 0.00 | 0.53 | 0.53 | 95 | 996.0 |
| 20260509180600 | 8 | 273 | 0.0 | 0.0 | 0.00 | 0.53 | 0.53 | 96 | 996.0 |
| 20260509180108 | 8 | 273 | 0.0 | 0.0 | 0.03 | 0.53 | 0.53 | 96 | 995.9 |
| 20260509175600 | 8 | 273 | 0.0 | 0.0 | 0.03 | 0.53 | 0.53 | 96 | 996.0 |
| 20260509175020 | 8 | 273 | 0.0 | 0.0 | 0.03 | 0.53 | 0.53 | 96 | 996.0 |
| 20260509174531 | 8 | 273 | 0.0 | 0.0 | 0.03 | 0.53 | 0.53 | 95 | 996.1 |
| 20260509174042 | 8 | 273 | 0.0 | 0.0 | 0.03 | 0.53 | 0.53 | 95 | 996.1 |
| 20260509173523 | 8 | 273 | 0.0 | 0.0 | 0.03 | 0.53 | 0.53 | 95 | 996.1 |
| 20260509173031 | 8 | 273 | 0.0 | 0.0 | 0.05 | 0.53 | 0.53 | 95 | 996.2 |
| 20260509172532 | 8 | 273 | 0.0 | 0.0 | 0.05 | 0.53 | 0.53 | 95 | 996.3 |
| 20260509172021 | 8 | 273 | 0.0 | 0.0 | 0.05 | 0.53 | 0.53 | 96 | 996.3 |
| 20260509171531 | 8 | 273 | 0.0 | 0.0 | 0.08 | 0.53 | 0.53 | 96 | 996.3 |
| 20260509171028 | 8 | 273 | 0.0 | 0.0 | 0.08 | 0.53 | 0.53 | 95 | 996.4 |
| 20260509170539 | 8 | 273 | 0.0 | 0.0 | 0.08 | 0.51 | 0.51 | 95 | 996.5 |
| 20260509170047 | 8 | 273 | 0.0 | 0.0 | 0.08 | 0.51 | 0.51 | 95 | 996.6 |
| 20260509165527 | 8 | 273 | 0.0 | 0.0 | 0.10 | 0.51 | 0.51 | 95 | 996.6 |
| 20260509165039 | 8 | 273 | 0.0 | 0.0 | 0.13 | 0.51 | 0.51 | 95 | 996.7 |
| 20260509164537 | 8 | 273 | 0.0 | 0.0 | 0.15 | 0.51 | 0.51 | 95 | 996.8 |
| 20260509163529 | 7 | 273 | 0.0 | 0.0 | 0.18 | 0.51 | 0.51 | 95 | 996.8 |
| 20260509163039 | 7 | 273 | 0.0 | 0.0 | 0.18 | 0.48 | 0.48 | 95 | 996.9 |
| 20260509162538 | 7 | 273 | 0.0 | 0.0 | 0.20 | 0.48 | 0.48 | 94 | 997.0 |
| 20260509162027 | 7 | 273 | 0.0 | 0.0 | 0.23 | 0.48 | 0.48 | 94 | 997.1 |
| 20260509161538 | 7 | 273 | 0.0 | 0.0 | 0.23 | 0.46 | 0.46 | 94 | 997.2 |
| 20260509161038 | 7 | 273 | 0.0 | 0.0 | 0.23 | 0.46 | 0.46 | 94 | 997.2 |
| 20260509160529 | 7 | 273 | 0.0 | 0.0 | 0.23 | 0.43 | 0.43 | 94 | 997.3 |
| 20260509160028 | 7 | 273 | 0.0 | 0.0 | 0.23 | 0.41 | 0.41 | 93 | 997.4 |
| 20260509155539 | 7 | 273 | 0.0 | 0.0 | 0.23 | 0.41 | 0.41 | 93 | 997.4 |
| 20260509155028 | 7 | 273 | 0.0 | 1.6 | 0.23 | 0.38 | 0.38 | 93 | 997.4 |
| 20260509154529 | 7 | 273 | 0.0 | 1.6 | 0.20 | 0.36 | 0.36 | 92 | 997.5 |
| 20260509154036 | 7 | 273 | 0.0 | 0.0 | 0.23 | 0.36 | 0.36 | 92 | 997.5 |
| 20260509153547 | 7 | 273 | 0.0 | 0.0 | 0.20 | 0.33 | 0.33 | 92 | 997.6 |
| 20260509153026 | 7 | 273 | 0.0 | 0.0 | 0.18 | 0.30 | 0.30 | 91 | 997.7 |
| 20260509152536 | 7 | 273 | 0.0 | 0.0 | 0.15 | 0.28 | 0.28 | 92 | 997.7 |
| 20260509152046 | 7 | 273 | 0.0 | 0.0 | 0.15 | 0.25 | 0.25 | 92 | 997.8 |
| 20260509151526 | 7 | 273 | 0.0 | 0.0 | 0.13 | 0.23 | 0.23 | 91 | 997.8 |
| 20260509151036 | 7 | 273 | 0.0 | 0.0 | 0.13 | 0.20 | 0.20 | 91 | 997.8 |
| 20260509150547 | 7 | 273 | 0.0 | 0.0 | 0.13 | 0.20 | 0.20 | 91 | 997.8 |
| 20260509150026 | 7 | 273 | 0.0 | 1.6 | 0.10 | 0.18 | 0.18 | 91 | 997.8 |
| 20260509145535 | 7 | 273 | 0.0 | 1.6 | 0.13 | 0.18 | 0.18 | 91 | 997.8 |
| 20260509145043 | 7 | 273 | 0.0 | 0.0 | 0.10 | 0.15 | 0.15 | 91 | 997.8 |
| 20260509144551 | 7 | 273 | 0.0 | 0.0 | 0.13 | 0.15 | 0.15 | 91 | 997.8 |
| 20260509144059 | 7 | 273 | 0.0 | 0.0 | 0.10 | 0.13 | 0.13 | 90 | 997.8 |
| 20260509143657 | 7 | 273 | 0.0 | 0.0 | 0.13 | 0.13 | 0.13 | 90 | 997.8 |
| 20260509143035 | 7 | 273 | 0.0 | 0.0 | 0.13 | 0.13 | 0.13 | 89 | 997.8 |
| 20260509142525 | 7 | 273 | 0.0 | 1.6 | 0.10 | 0.10 | 0.10 | 88 | 997.8 |
| 20260509142026 | 7 | 273 | 0.0 | 1.6 | 0.10 | 0.10 | 0.10 | 87 | 997.9 |
| 20260509141537 | 7 | 273 | 0.0 | 1.6 | 0.10 | 0.10 | 0.10 | 87 | 997.9 |
| 20260509141027 | 7 | 273 | 0.0 | 0.0 | 0.08 | 0.08 | 0.08 | 88 | 997.9 |
| 20260509140529 | 7 | 273 | 0.0 | 0.0 | 0.08 | 0.08 | 0.08 | 89 | 997.8 |
| 20260509140038 | 7 | 273 | 0.0 | 0.0 | 0.08 | 0.08 | 0.08 | 88 | 997.8 |
| 20260509135554 | 7 | 273 | 0.0 | 0.0 | 0.05 | 0.05 | 0.05 | 88 | 997.8 |
| 20260509135024 | 7 | 273 | 0.0 | 0.0 | 0.05 | 0.05 | 0.05 | 87 | 997.9 |
| 20260509134521 | 7 | 273 | 0.0 | 0.0 | 0.03 | 0.03 | 0.03 | 87 | 997.8 |
| 20260509134031 | 7 | 273 | 0.0 | 0.0 | 0.03 | 0.03 | 0.03 | 87 | 997.9 |
| 20260509133533 | 7 | 273 | 0.0 | 0.0 | 0.00 | 0.00 | 0.00 | 86 | 997.9 |
| 20260509133039 | 7 | 273 | 0.0 | 0.0 | 0.00 | 0.00 | 0.00 | 86 | 997.8 |
| 20260509132539 | 7 | 273 | 0.0 | 0.0 | 0.00 | 0.00 | 0.00 | 85 | 997.8 |
| 20260509132029 | 7 | 272 | 0.0 | 0.0 | 0.00 | 0.00 | 0.00 | 84 | 997.8 |
| 20260509131541 | 7 | 273 | 0.0 | 0.0 | 0.00 | 0.00 | 0.00 | 83 | 997.9 |
| 20260509131020 | 7 | 273 | 0.0 | 0.0 | 0.00 | 0.00 | 0.00 | 83 | 997.9 |
| 20260509130532 | 7 | 273 | 0.0 | 0.0 | 0.00 | 0.00 | 0.00 | 84 | 997.8 |
| 20260509130031 | 7 | 273 | 0.0 | 0.0 | 0.00 | 0.00 | 0.00 | 85 | 997.8 |
| 20260509125521 | 7 | 273 | 0.0 | 0.0 | 0.00 | 0.00 | 0.00 | 88 | 997.7 |
| 20260509125031 | 7 | 273 | 0.0 | 0.0 | 0.00 | 0.00 | 0.00 | 89 | 997.7 |
| 20260509124532 | 6 | 273 | 0.0 | 0.0 | 0.00 | 0.00 | 0.00 | 88 | 997.8 |
| 20260509124021 | 6 | 273 | 0.0 | 0.0 | 0.00 | 0.00 | 0.00 | 90 | 997.9 |
| 20260509123525 | 6 | 273 | 0.0 | 0.0 | 0.00 | 0.00 | 0.00 | 92 | 997.9 |
| 20260509123033 | 6 | 273 | 0.0 | 0.0 | 0.00 | 0.00 | 0.00 | 93 | 997.9 |
| 20260509122522 | 6 | 273 | 0.0 | 0.0 | 0.00 | 0.00 | 0.00 | 94 | 998.0 |
| 20260509122023 | 6 | 273 | 0.0 | 0.0 | 0.00 | 0.00 | 0.00 | 95 | 998.0 |
| 20260509121534 | 5 | 273 | 0.0 | 0.0 | 0.00 | 0.00 | 0.00 | 96 | 998.0 |
| 20260509121025 | 5 | 273 | 0.0 | 0.0 | 0.00 | 0.00 | 0.00 | 97 | 998.1 |
| 20260509120528 | 5 | 273 | 0.0 | 0.0 | 0.00 | 0.00 | 0.00 | 97 | 998.1 |
| 20260509120037 | 5 | 273 | 0.0 | 0.0 | 0.00 | 0.00 | 0.00 | 98 | 998.2 |
| 20260509115543 | 5 | 273 | 0.0 | 0.0 | 0.00 | 0.00 | 0.00 | 98 | 998.2 |
| 20260509115022 | 4 | 273 | 0.0 | 0.0 | 0.00 | 0.00 | 0.00 | 98 | 998.4 |
| 20260509114524 | 4 | 273 | 0.0 | 0.0 | 0.00 | 0.00 | 0.00 | 98 | 998.3 |
| 20260509114035 | 4 | 273 | 0.0 | 0.0 | 0.00 | 0.00 | 0.00 | 98 | 998.4 |
| 20260509113537 | 3 | 273 | 0.0 | 0.0 | 0.00 | 0.00 | 0.00 | 98 | 998.4 |
| 20260509113025 | 3 | 273 | 0.0 | 0.0 | 0.00 | 0.00 | 0.00 | 98 | 998.4 |
| 20260509112535 | 3 | 273 | 0.0 | 0.0 | 0.00 | 0.00 | 0.00 | 98 | 998.3 |
| 20260509112037 | 3 | 273 | 0.0 | 0.0 | 0.00 | 0.00 | 0.00 | 98 | 998.2 |
| 20260509111526 | 2 | 273 | 0.0 | 0.0 | 0.00 | 0.00 | 0.00 | 98 | 998.2 |
| 20260509111038 | 2 | 273 | 0.0 | 0.0 | 0.00 | 0.00 | 0.00 | 98 | 998.2 |
| 20260509110540 | 2 | 273 | 0.0 | 0.0 | 0.00 | 0.00 | 0.00 | 98 | 998.2 |
| 20260509110029 | 2 | 273 | 0.0 | 0.0 | 0.00 | 0.00 | 0.00 | 97 | 998.2 |
| 20260509105530 | 2 | 273 | 0.0 | 0.0 | 0.00 | 0.00 | 0.00 | 97 | 998.2 |
| 20260509105020 | 2 | 273 | 0.0 | 0.0 | 0.00 | 0.00 | 0.00 | 97 | 998.3 |
| 20260509104530 | 2 | 273 | 0.0 | 0.0 | 0.00 | 0.00 | 0.00 | 98 | 998.2 |
| 20260509104032 | 1 | 273 | 0.0 | 0.0 | 0.00 | 0.00 | 0.00 | 98 | 998.3 |
| 20260509103524 | 1 | 273 | 0.0 | 0.0 | 0.00 | 0.00 | 0.00 | 98 | 998.3 |
| 20260509103033 | 1 | 273 | 0.0 | 0.0 | 0.00 | 0.00 | 0.00 | 98 | 998.5 |
| 20260509102535 | 1 | 273 | 0.0 | 0.0 | 0.00 | 0.00 | 0.00 | 98 | 998.4 |
| 20260509102024 | 1 | 273 | 0.0 | 0.0 | 0.00 | 0.00 | 0.00 | 97 | 998.3 |
| 20260509101521 | 1 | 273 | 0.0 | 0.0 | 0.00 | 0.00 | 0.00 | 97 | 998.2 |
| 20260509101032 | 1 | 273 | 0.0 | 0.0 | 0.00 | 0.00 | 0.00 | 97 | 998.3 |